South Bend, IN

6:01 PM EDT on April 27, 2017 (GMT -0400)
South Bend Regional

Weather History for KSBN - May, 2013

Change the Weather History Date:

Sunday, May 19, 2013

  Actual Average Record
Temperature  
Mean Temperature 74 °F 60 °F  
Max Temperature 88 °F 71 °F 94 °F (1934)
Min Temperature 59 °F 50 °F 32 °F (2002)
Degree Days  
Heating Degree Days 0 6  
Month to date heating degree days 88 164  
Since 1 July heating degree days 6043 6195  
Cooling Degree Days 9 2  
Month to date cooling degree days 34 20  
Year to date cooling degree days 39 30  
Growing Degree Days 24 (Base 50)    
Moisture  
Dew Point 57 °F    
Average Humidity 54    
Maximum Humidity 72    
Minimum Humidity 36    
Precipitation  
Precipitation 0.00 in 0.13 in 1.14 in (1926)
Month to date precipitation 0.26 2.27  
Year to date precipitation 14.31 12.16  
Snow  
Snow 0.00 in 0.00 in T in (1968)
Month to date snowfall 0.0 0.0  
Since 1 July snowfall 59.9 66.6  
Snow Depth 0.00 in    
Sea Level Pressure  
Sea Level Pressure 29.92 in    
Wind  
Wind Speed 8 mph (SE)    
Max Wind Speed 18 mph    
Max Gust Speed 22 mph    
Visibility 10 miles    
Events      
T = Trace of Precipitation, MM = Missing Value Source: NWS Daily Summary

Daily Weather History Graph

Daily Weather History Graph

Search for Another Location

Airport or City:

Trip Planner

Search our weather history database for the weather conditions in past years. The results will help you decide how hot, cold, wet, or windy it might be!

Date:

Astronomy

May. 19, 2013 Rise Set
Actual Time 6:21 AM EDT 9:02 PM EDT
Civil Twilight 5:49 AM EDT 9:34 PM EDT
Nautical Twilight 5:09 AM EDT 10:15 PM EDT
Astronomical Twilight 4:23 AM EDT 11:01 PM EDT
Moon 3:01 PM EDT (5/19) 2:50 AM EDT (5/19)
Length of Visible Light 15h 45m
Length of Day
14h 40m
Waxing Gibbous, 65% of the Moon is Illuminated
May 19
Waxing Gibbous
May 25
Full
May 31
Last Quarter
Jun 8
New
Jun 16
First Quarter

Hourly Weather History & Observations

Time (EDT) Temp. Heat Index Dew Point Humidity Pressure Visibility Wind Dir Wind Speed Gust Speed Precip Events Conditions
12:54 AM 71.1 °F - 55.9 °F 59% 29.99 in 10.0 mi ESE 9.2 mph - N/A   Mostly Cloudy
1:54 AM 68.0 °F - 55.9 °F 65% 29.97 in 10.0 mi SE 9.2 mph - N/A   Clear
2:54 AM 66.0 °F - 55.0 °F 68% 29.96 in 10.0 mi ESE 5.8 mph - N/A   Clear
3:54 AM 64.9 °F - 52.0 °F 63% 29.96 in 10.0 mi East 5.8 mph - N/A   Clear
4:54 AM 63.0 °F - 51.1 °F 65% 29.97 in 10.0 mi East 4.6 mph - N/A   Clear
5:54 AM 61.0 °F - 51.1 °F 70% 29.98 in 10.0 mi East 3.5 mph - N/A   Clear
6:54 AM 60.1 °F - 50.0 °F 69% 29.98 in 10.0 mi East 4.6 mph - N/A   Clear
7:54 AM 62.6 °F - 50.0 °F 63% 29.98 in 10.0 mi ESE 5.8 mph - N/A   Clear
8:54 AM 66.9 °F - 51.1 °F 57% 29.99 in 10.0 mi SE 5.8 mph - N/A   Clear
9:54 AM 71.1 °F - 54.0 °F 55% 29.97 in 10.0 mi Variable 4.6 mph - N/A   Clear
10:54 AM 75.0 °F - 59.0 °F 57% 29.97 in 10.0 mi Variable 3.5 mph - N/A   Clear
11:54 AM 79.0 °F - 60.1 °F 52% 29.98 in 10.0 mi SW 3.5 mph - N/A   Clear
12:54 PM 81.0 °F 81.6 °F 60.1 °F 49% 29.96 in 10.0 mi ESE 5.8 mph - N/A   Scattered Clouds
1:54 PM 82.9 °F 83.2 °F 60.1 °F 46% 29.93 in 10.0 mi SE 4.6 mph - N/A   Partly Cloudy
2:54 PM 84.2 °F 83.8 °F 59.0 °F 42% 29.89 in 10.0 mi ESE 10.4 mph 18.4 mph N/A   Clear
3:54 PM 87.1 °F 86.1 °F 57.9 °F 37% 29.87 in 10.0 mi South 12.7 mph 21.9 mph N/A   Clear
4:54 PM 88.0 °F 87.1 °F 59.0 °F 37% 29.86 in 10.0 mi South 8.1 mph 19.6 mph N/A   Clear
5:54 PM 87.1 °F 86.5 °F 59.0 °F 39% 29.85 in 10.0 mi SSE 13.8 mph 20.7 mph N/A   Mostly Cloudy
5:58 PM 86.0 °F 85.4 °F 59.0 °F 40% 29.86 in 10.0 mi Variable 6.9 mph 20.7 mph N/A   Scattered Clouds
6:54 PM 86.0 °F 85.4 °F 59.0 °F 40% 29.83 in 10.0 mi SSE 11.5 mph - N/A   Clear
7:54 PM 84.0 °F 84.0 °F 60.1 °F 44% 29.81 in 10.0 mi SSE 11.5 mph - N/A   Clear
8:54 PM 81.0 °F 81.7 °F 61.0 °F 50% 29.84 in 10.0 mi South 6.9 mph - N/A   Clear
9:54 PM 79.0 °F - 60.1 °F 52% 29.86 in 10.0 mi SSE 8.1 mph - N/A   Clear
10:54 PM 78.1 °F - 61.0 °F 56% 29.86 in 10.0 mi SSE 9.2 mph - N/A   Clear
11:54 PM 77.0 °F - 61.0 °F 58% 29.85 in 10.0 mi SSE 11.5 mph - N/A   Clear